Terug naar catalogus

STARLINK-36813

ActiefCommunicatieSSO
NORAD 67892·PAYLOAD·🇺🇸 United States

Gelanceerd Feb 21, 2026 vanaf Vandenberg Space Force Base

Loading…

Volgende Passages (komende 24 uur)

TLE

VersSource: CelesTrak SupGP

Epoch: Sep 15, 2026, 03:32 UTC

1 67892C 26035P   26258.14770833  .00092332  00000+0  28664-2 0  2588
2 67892  97.2848 190.1432 0001708  99.8737  28.6241 15.33389484    13

Volg STARLINK-36813 in realtime met AllMySat

Download on the App Store